logo
App data

Instant Dungeon!

Instant Dungeon! mixes dungeon exploration with arcade action in the vein of the classic maze games from the 80s. Let Instant Dungeon! create a new dungeon just for you, complete with glittering treasures, vicious monsters, brutal boss battles, wild power ups and most importantly fun, Fun, FUN!
Store | Hub | SteamDB | Site
Developer: With The Love Studios Publisher: Flying Interactive
Genre: Action, Indie
Languages: English
Tags: Indie (35), Action (34), Action Roguelike (25), Arcade (18), Retro (18), Great Soundtrack (12), Rogue-like (11), Dungeon Crawler (6)
Category: Single-player, Steam Achievements, Full controller support, Steam Trading Cards, Stats, Steam Leaderboards
Release date: Nov 25, 2014
Price: $1.99
Old userscore: 87% Owners: 0 .. 20,000
Followers: 694
Peak concurrent players yesterday: 1
YouTube stats: 5,006 views and 257 comments for top 50 videos uploaded last week, 1 new videos uploaded yesterday.
Playtime total: 01:31 (average) 01:31 (median)

Steam Spy is still in beta, so expect major bugs.

Owners data:

Access restricted.

This feature is only available to users with special access rights. Sorry.

If you want to proceed, you need to register or log in first and then back Steam Spy on Patreon. Look for Indie or Pro pledge.

Don't forget to use the same email as on Steam Spy!

If you've recently backed Steam Spy on Patreon, please note, that it might take around 15 minutes for your access rights to sync. In most cases you'll need to re-login on Steam Spy too.

Audience in 2 weeks:

Access restricted.

This feature is only available to users with special access rights. Sorry.

If you want to proceed, you need to register or log in first and then back Steam Spy on Patreon. Look for Indie or Pro pledge.

Don't forget to use the same email as on Steam Spy!

If you've recently backed Steam Spy on Patreon, please note, that it might take around 15 minutes for your access rights to sync. In most cases you'll need to re-login on Steam Spy too.

Peak daily concurrent players:

CCU data courtesy of SteamDB. Used with permission.

Hourly concurrent players:

Followers over time

Access restricted.

This feature is only available to users with special access rights. Sorry.

If you want to proceed, you need to register or log in first and then back Steam Spy on Patreon. Look for Indie or Pro pledge.

Don't forget to use the same email as on Steam Spy!

If you've recently backed Steam Spy on Patreon, please note, that it might take around 15 minutes for your access rights to sync. In most cases you'll need to re-login on Steam Spy too.

Views for top 50 videos on YouTube for this game:

Games similar to this one:

# Game Release date
Price
Score rank
(Userscore / Metascore)
Owners
Players
Playtime (Median)
1 Rhythm Destruction Jun 16, 2014 $4.99N/A (N/A)50,000 .. 100,0000%00:00 (00:00)
2 Canyon Capers Apr 25, 2014 $6.99N/A (N/A)200,000 .. 500,0000%00:00 (00:00)
3 Team Indie Oct 8, 2014 N/AN/A (N/A)50,000 .. 100,0000%00:00 (00:00)
4 Rabbit Hole 3D: Steam Edition Apr 25, 2014 $2.99N/A (N/A)50,000 .. 100,0000%00:00 (00:00)
5 Oblitus Feb 27, 2015 $14.99N/A (N/A/69%)20,000 .. 50,0000%00:00 (00:00)
6 ReignMaker Apr 16, 2014 $14.99N/A (N/A)50,000 .. 100,0000%00:00 (00:00)
7 Mega Coin Squad Aug 15, 2014 $14.99N/A (N/A/56%)0 .. 20,0000%00:00 (00:00)
8 Actual Sunlight Apr 3, 2014 $4.99N/A (N/A/77%)50,000 .. 100,0000%00:00 (00:00)
9 OTTTD Aug 6, 2014 $7.99N/A (N/A)50,000 .. 100,0000%00:00 (00:00)
10 Volt Apr 14, 2014 $0.99N/A (N/A)100,000 .. 200,0000%00:00 (00:00)
11 The Masterplan Jun 4, 2015 $19.99N/A (N/A/68%)100,000 .. 200,0000%00:00 (00:00)
12 Three Dead Zed Jul 7, 2014 $5.99N/A (N/A)50,000 .. 100,0000%00:00 (00:00)
13 NaissanceE Feb 13, 2014 FreeN/A (N/A/66%)100,000 .. 200,0000%00:00 (00:00)
14 6180 the moon Sep 19, 2014 $3.99N/A (N/A)0 .. 20,0000%00:00 (00:00)
15 //N.P.P.D. RUSH//- The milk of Ultraviolet Feb 13, 2014 $3.99N/A (N/A)100,000 .. 200,0000%00:00 (00:00)
16 Chicken Invaders 4 Jun 6, 2014 $4.99N/A (N/A)20,000 .. 50,0000%00:00 (00:00)
17 RONIN Jun 30, 2015 $12.99N/A (N/A/70%)100,000 .. 200,0000%00:00 (00:00)
18 NEO AQUARIUM - The King of Crustaceans - Jun 8, 2015 $8.99N/A (N/A)50,000 .. 100,0000%00:00 (00:00)
19 Master Spy Sep 8, 2015 $9.99N/A (N/A/68%)50,000 .. 100,0000%00:00 (00:00)
20 Beyond Eyes Aug 11, 2015 $14.99N/A (N/A/60%)100,000 .. 200,0000%00:00 (00:00)
21 Cherry Tree High I! My! Girls! Nov 20, 2014 $3.99N/A (N/A)20,000 .. 50,0000%00:00 (00:00)
22 Orbit HD Mar 18, 2015 $1.99N/A (N/A)20,000 .. 50,0000%00:00 (00:00)
23 A Druid's Duel Feb 25, 2015 $7.99N/A (N/A/70%)0 .. 20,0000%00:00 (00:00)
24 One More Line Aug 25, 2015 $2.99N/A (N/A)20,000 .. 50,0000%00:00 (00:00)
25 Bermuda Mar 17, 2015 $2.99N/A (N/A)50,000 .. 100,0000%00:00 (00:00)
26 Canabalt Apr 30, 2015 $2.99N/A (N/A)20,000 .. 50,0000%00:00 (00:00)
27 One Late Night: Deadline Dec 22, 2014 $0.99N/A (N/A)0 .. 20,0000%00:00 (00:00)
28 Choice Chamber Jul 16, 2015 $9.99N/A (N/A)50,000 .. 100,0000%00:00 (00:00)
29 Three Fourths Home: Extended Edition Mar 20, 2015 $4.99N/A (N/A/77%)20,000 .. 50,0000%00:00 (00:00)
30 Velocibox Sep 8, 2014 $4.99N/A (N/A)50,000 .. 100,0000%00:00 (00:00)
31 Super Galaxy Squadron EX Turbo Mar 6, 2017 $9.99N/A (N/A)50,000 .. 100,0000%00:00 (00:00)
32 ONE DAY for Ched Sep 12, 2014 $3.99N/A (N/A)20,000 .. 50,0000%00:00 (00:00)
33 Star Horizon May 15, 2020 $9.99N/A (N/A)0 .. 20,0000%00:00 (00:00)
34 The Sun and Moon Nov 14, 2014 $6.99N/A (N/A)20,000 .. 50,0000%00:00 (00:00)
35 Season of 12 Colors Mar 14, 2016 $2.99N/A (N/A)50,000 .. 100,0000%00:00 (00:00)
36 I and Me May 4, 2016 $9.99N/A (N/A)0 .. 20,0000%00:00 (00:00)
37 Combat Core Jan 10, 2019 $15.99N/A (N/A)0 .. 20,0000%00:00 (00:00)
38 That Dragon, Cancer Jan 11, 2016 $9.99N/A (N/A/78%)50,000 .. 100,0000%00:00 (00:00)
39 Mini Thief Oct 12, 2018 $1.99N/A (N/A)50,000 .. 100,0000%00:00 (00:00)
40 Ben and Ed - Blood Party Feb 13, 2018 $14.99N/A (N/A)50,000 .. 100,00012.5%00:10 (00:03)
41 Spellsworn Mar 13, 2018 FreeN/A (N/A)200,000 .. 500,0000%00:00 (00:00)
42 Old Man's Journey May 17, 2017 $7.99N/A (N/A/76%)100,000 .. 200,0000%00:00 (00:00)
43 Tobari and the Night of the Curious Moon May 26, 2015 $9.99N/A (N/A)0 .. 20,0000%00:00 (00:00)
44 Polyball Dec 1, 2017 $14.99N/A (N/A)100,000 .. 200,0000.67%00:04 (00:01)
45 Critter Crunch Sep 11, 2012 $6.99N/A (N/A)20,000 .. 50,0000%00:00 (00:00)
46 Rush Bros. May 24, 2013 $9.99N/A (N/A)100,000 .. 200,0000%00:00 (00:00)
47 Really Big Sky Feb 24, 2012 $4.99N/A (N/A)200,000 .. 500,0000%00:00 (00:00)
48 Super Puzzle Platformer Deluxe May 24, 2013 $7.99N/A (N/A)20,000 .. 50,0000%00:00 (00:00)
49 Titan Attacks! Feb 3, 2012 $9.99N/A (N/A)50,000 .. 100,0000%00:00 (00:00)
50 The Novelist Dec 10, 2013 $4.99N/A (N/A/66%)100,000 .. 200,0000%00:00 (00:00)
51 Lumino City Dec 2, 2014 $12.99N/A (N/A/70%)200,000 .. 500,0000%00:00 (00:00)
52 Escape Goat Jun 14, 2012 $4.99N/A (N/A)20,000 .. 50,0000%00:00 (00:00)
53 Unmechanical Aug 8, 2012 $9.99N/A (N/A/74%)100,000 .. 200,0000%00:00 (00:00)
54 Montague's Mount Nov 19, 2013 $4.99N/A (N/A/39%)20,000 .. 50,0000%00:00 (00:00)
55 Party of Sin Dec 13, 2012 $5.99N/A (N/A)50,000 .. 100,0000%00:00 (00:00)
56 Ballpoint Universe - Infinite Dec 17, 2013 $3.99N/A (N/A)50,000 .. 100,0000%00:00 (00:00)
57 Transcripted At some point $7.99N/A (N/A/78%)0 .. 20,0000%00:00 (00:00)
58 The Wonderful End of the World Jan 25, 2008 $9.99N/A (N/A/69%)100,000 .. 200,0000%00:00 (00:00)
59 Retro/Grade Mar 20, 2013 $2.49N/A (N/A)50,000 .. 100,0000%00:00 (00:00)
60 Madballs in Babo:Invasion Sep 17, 2009 $4.99N/A (N/A/79%)50,000 .. 100,0000%00:00 (00:00)
61 Bad Hotel Oct 16, 2013 $4.99N/A (N/A)50,000 .. 100,0000%00:00 (00:00)

Tags over time:

Access restricted.

This feature is only available to users with special access rights. Sorry.

If you want to proceed, you need to register or log in first and then back Steam Spy on Patreon. Look for Indie or Pro pledge.

Don't forget to use the same email as on Steam Spy!

If you've recently backed Steam Spy on Patreon, please note, that it might take around 15 minutes for your access rights to sync. In most cases you'll need to re-login on Steam Spy too.

Owners of this game also own:

Access restricted.

This feature is only available to users with special access rights. Sorry.

If you want to proceed, you need to register or log in first and then back Steam Spy on Patreon. Look for Indie or Pro pledge.

Don't forget to use the same email as on Steam Spy!

If you've recently backed Steam Spy on Patreon, please note, that it might take around 15 minutes for your access rights to sync. In most cases you'll need to re-login on Steam Spy too.

Playtime distribution:

Access restricted.

This feature is only available to users with special access rights. Sorry.

If you want to proceed, you need to register or log in first and then back Steam Spy on Patreon. Look for Indie or Pro pledge.

Don't forget to use the same email as on Steam Spy!

If you've recently backed Steam Spy on Patreon, please note, that it might take around 15 minutes for your access rights to sync. In most cases you'll need to re-login on Steam Spy too.

Playtime (2 weeks):

Access restricted.

This feature is only available to users with special access rights. Sorry.

If you want to proceed, you need to register or log in first and then back Steam Spy on Patreon. Look for Indie or Pro pledge.

Don't forget to use the same email as on Steam Spy!

If you've recently backed Steam Spy on Patreon, please note, that it might take around 15 minutes for your access rights to sync. In most cases you'll need to re-login on Steam Spy too.

User reviews:

Login required.

Please register or log in to see this information.